Location: Unspecified
(0.0000°N, 0.0000°E)
Time: 22:35:02
(UTC+00:00)

Tiros 1 - All Passes

Search period start: 24 November 2014 00:00
Search period end: 04 December 2014 00:00
Orbit: 632 x 667 km, 48.4° (Epoch: 23 November)

Date Brightness Start Highest point End Pass type
(mag) Time Alt. Az. Time Alt. Az. Time Alt. Az.
24 Nov - 06:54:18 10° SSW 06:58:51 42° SE 07:03:23 10° ENE daylight
24 Nov - 08:38:04 10° W 08:40:59 16° NW 08:43:53 10° NNW daylight
24 Nov - 19:07:40 10° NW 19:12:16 78° NE 19:16:53 10° SE visible
25 Nov - 05:41:43 10° SSE 05:43:35 12° SE 05:45:27 10° ESE daylight
25 Nov - 07:21:02 10° SW 07:25:45 56° NW 07:30:27 10° NNE daylight
25 Nov - 17:53:40 10° N 17:57:06 21° NE 18:00:32 10° E daylight
25 Nov - 19:35:11 10° WNW 19:39:10 29° SW 19:43:11 10° S visible
26 Nov - 06:06:06 10° SSW 06:10:35 39° SE 06:15:03 10° ENE daylight
26 Nov - 07:49:34 10° W 07:52:42 17° NW 07:55:50 10° N daylight
26 Nov - 18:19:25 10° NNW 18:24:01 72° NE 18:28:37 10° SE visible
27 Nov - 04:53:58 10° SSE 04:55:18 11° SE 04:56:38 10° ESE visible
27 Nov - 06:32:44 10° SW 06:37:29 61° NW 06:42:13 10° NNE daylight
27 Nov - 17:05:34 10° N 17:08:50 19° NE 17:12:06 10° E daylight
27 Nov - 18:46:49 10° WNW 18:50:55 31° SW 18:55:01 10° SSE visible
28 Nov - 05:17:54 10° SSW 05:22:18 35° SE 05:26:41 10° ENE visible
28 Nov - 07:01:05 10° W 07:04:25 19° NW 07:07:45 10° N daylight
28 Nov - 17:31:11 10° NNW 17:35:46 65° NE 17:40:20 10° SE daylight
29 Nov - 05:44:26 10° SW 05:49:11 67° NW 05:53:58 10° NNE daylight
29 Nov - 16:17:28 10° N 16:20:34 18° NE 16:23:39 10° E daylight
29 Nov - 17:58:27 10° WNW 18:02:39 34° SW 18:06:51 10° SSE daylight
30 Nov - 04:29:43 10° SSW 04:34:01 33° SE 04:38:18 10° ENE visible
30 Nov - 06:12:37 10° W 06:16:07 20° NW 06:19:38 10° N daylight
30 Nov - 16:42:56 10° NNW 16:47:30 60° NE 16:52:03 10° SE daylight
30 Nov - 18:29:01 10° WSW 18:29:38 10° SW 18:30:15 10° SW visible
01 Dec - 04:56:08 10° SW 05:00:54 73° NW 05:05:41 10° NNE visible
01 Dec - 15:29:23 10° N 15:32:17 16° NE 15:35:10 10° E daylight
01 Dec - 17:10:06 10° WNW 17:14:23 37° SW 17:18:39 10° SSE daylight
02 Dec - 03:41:32 10° S 03:45:43 30° SE 03:49:55 10° ENE visible
02 Dec - 05:24:10 10° W 05:27:49 22° NW 05:31:29 10° N visible
02 Dec - 15:54:41 10° NNW 15:59:13 55° NE 16:03:45 10° SE daylight
02 Dec - 17:39:55 10° WSW 17:41:21 11° SW 17:42:47 10° SSW daylight
03 Dec - 04:07:50 10° SW 04:12:37 79° NW 04:17:24 10° NE visible
03 Dec - 14:41:20 10° NNE 14:44:00 15° NE 14:46:39 10° E daylight
03 Dec - 16:21:44 10° WNW 16:26:06 41° SW 16:30:27 10° SSE daylight
